EW7114 Weather Reports


Display with metric or nautical units.
time (UTC)temp
F
wind
direction
speed
MPH
gust
MPH
rain 1hr
in
rain 24hr
in
rain mn
in
humidity
%
barometer
mb
20260906193026 81 161 19.0 26.0 0.00 0.00 0.00 32 1002.6
20260906192524 81 190 14.0 21.0 0.00 0.00 0.00 34 1002.5
20260906192024 81 153 14.0 27.0 0.00 0.00 0.00 34 1002.6
20260906191523 81 198 18.0 27.0 0.00 0.00 0.00 33 1002.7
20260906191022 80 189 20.0 27.0 0.00 0.00 0.00 34 1002.9
20260906190522 80 184 15.0 22.0 0.00 0.00 0.00 36 1003.0
20260906190021 80 173 14.0 22.0 0.00 0.00 0.00 35 1003.1
20260906185521 80 158 13.0 22.0 0.00 0.00 0.00 36 1003.0
20260906185020 80 178 15.0 21.0 0.00 0.00 0.00 36 1003.1
20260906184524 80 176 15.0 26.0 0.00 0.00 0.00 36 1003.2
20260906184027 80 161 15.0 26.0 0.00 0.00 0.00 35 1003.1
20260906183519 79 171 10.0 24.0 0.00 0.00 0.00 35 1003.0
20260906183039 79 154 20.0 24.0 0.00 0.00 0.00 35 1003.3
20260906182519 78 165 13.0 22.0 0.00 0.00 0.00 37 1003.3
20260906182022 79 147 16.0 25.0 0.00 0.00 0.00 36 1003.3
20260906181519 80 147 20.0 25.0 0.00 0.00 0.00 34 1003.4
20260906181019 81 147 19.0 30.0 0.00 0.00 0.00 36 1003.2
20260906180519 80 159 15.0 30.0 0.00 0.00 0.00 35 1003.2
20260906180021 81 145 21.0 30.0 0.00 0.00 0.00 35 1003.3
20260906175519 81 149 18.0 31.0 0.00 0.00 0.00 35 1003.3
20260906175019 80 145 22.0 31.0 0.00 0.00 0.00 35 1003.2
20260906174516 80 175 23.0 33.0 0.00 0.00 0.00 36 1003.3
20260906174017 80 150 21.0 34.0 0.00 0.00 0.00 35 1003.3
20260906173516 80 153 21.0 27.0 0.00 0.00 0.00 35 1003.3
20260906173014 80 192 17.0 29.0 0.00 0.00 0.00 35 1003.4
20260906172513 80 168 20.0 29.0 0.00 0.00 0.00 35 1003.6
20260906172013 80 143 14.0 26.0 0.00 0.00 0.00 36 1003.6
20260906171518 79 161 21.0 26.0 0.00 0.00 0.00 36 1003.7
20260906171010 78 156 22.0 33.0 0.00 0.00 0.00 36 1003.4
20260906170510 78 161 20.0 32.0 0.00 0.00 0.00 37 1003.5
20260906170011 78 149 20.0 42.0 0.00 0.00 0.00 36 1003.8
20260906165509 78 157 21.0 29.0 0.00 0.00 0.00 36 1003.7
20260906165107 78 148 20.0 30.0 0.00 0.00 0.00 36 1003.7
20260906164507 78 134 17.0 31.0 0.00 0.00 0.00 37 1003.8
20260906164008 77 159 20.0 32.0 0.00 0.00 0.00 37 1003.9
20260906163509 78 158 24.0 35.0 0.00 0.00 0.00 36 1003.9
20260906163010 77 148 19.0 32.0 0.00 0.00 0.00 36 1004.0
20260906162506 77 155 20.0 32.0 0.00 0.00 0.00 38 1004.0
20260906162004 76 149 20.0 31.0 0.00 0.00 0.00 38 1004.1
20260906161503 77 156 19.0 26.0 0.00 0.00 0.00 37 1004.1
20260906161004 76 143 21.0 26.0 0.00 0.00 0.00 38 1004.2
20260906160502 76 145 21.0 28.0 0.00 0.00 0.00 38 1004.2
20260906160003 76 126 21.0 28.0 0.00 0.00 0.00 38 1004.4
20260906155501 76 153 18.0 29.0 0.00 0.00 0.00 38 1004.4
20260906155100 76 158 20.0 29.0 0.00 0.00 0.00 38 1004.5
20260906154602 76 138 17.0 29.0 0.00 0.00 0.00 39 1004.6
20260906154101 76 138 19.0 29.0 0.00 0.00 0.00 38 1004.8
20260906153600 75 173 18.0 25.0 0.00 0.00 0.00 38 1004.8
20260906153059 75 139 16.0 23.0 0.00 0.00 0.00 39 1004.9
20260906152557 75 154 15.0 23.0 0.00 0.00 0.00 39 1004.8
20260906152059 74 148 15.0 20.0 0.00 0.00 0.00 40 1004.9
20260906151555 73 161 13.0 23.0 0.00 0.00 0.00 41 1004.9
20260906151055 73 147 16.0 24.0 0.00 0.00 0.00 40 1004.8
20260906150556 73 144 13.0 22.0 0.00 0.00 0.00 41 1004.9
20260906150056 72 150 15.0 23.0 0.00 0.00 0.00 41 1005.0
20260906145553 72 151 15.0 21.0 0.00 0.00 0.00 42 1005.0
20260906145050 71 178 12.0 21.0 0.00 0.00 0.00 42 1005.1
20260906144559 71 157 14.0 19.0 0.00 0.00 0.00 42 1005.1
20260906144049 70 153 12.0 19.0 0.00 0.00 0.00 44 1005.1
20260906143553 70 134 15.0 19.0 0.00 0.00 0.00 43 1005.1
20260906143053 69 161 14.0 21.0 0.00 0.00 0.00 44 1005.2
20260906142548 69 130 14.0 19.0 0.00 0.00 0.00 44 1005.1
20260906142051 68 159 12.0 17.0 0.00 0.00 0.00 46 1005.1
20260906141550 67 143 11.0 18.0 0.00 0.00 0.00 46 1005.1
20260906141047 67 138 13.0 18.0 0.00 0.00 0.00 46 1005.1
20260906140549 65 150 12.0 16.0 0.00 0.00 0.00 48 1005.1
20260906140046 64 136 9.0 14.0 0.00 0.00 0.00 50 1005.0
20260906135546 63 147 8.0 12.0 0.00 0.00 0.00 49 1005.1
20260906135046 62 143 8.0 13.0 0.00 0.00 0.00 49 1005.0
20260906134548 62 138 10.0 17.0 0.00 0.00 0.00 50 1005.0
20260906134045 62 155 11.0 17.0 0.00 0.00 0.00 50 1005.0
20260906133545 61 138 10.0 15.0 0.00 0.00 0.00 50 1004.9
20260906133046 62 150 11.0 15.0 0.00 0.00 0.00 48 1004.9
20260906132543 62 140 11.0 16.0 0.00 0.00 0.00 49 1004.7
20260906132042 61 154 8.0 12.0 0.00 0.00 0.00 50 1004.6
20260906131541 61 122 8.0 11.0 0.00 0.00 0.00 50 1004.6
20260906131040 60 175 7.0 11.0 0.00 0.00 0.00 50 1004.5
20260906130540 61 146 6.0 11.0 0.00 0.00 0.00 49 1004.5
20260906130040 61 144 8.0 13.0 0.00 0.00 0.00 49 1004.5
20260906125543 62 138 9.0 13.0 0.00 0.00 0.00 48 1004.4
20260906125038 62 136 9.0 17.0 0.00 0.00 0.00 48 1004.4
20260906124538 63 134 10.0 17.0 0.00 0.00 0.00 48 1004.4
20260906124040 61 110 9.0 15.0 0.00 0.00 0.00 49 1004.4
20260906123540 60 130 6.0 10.0 0.00 0.00 0.00 49 1004.4
20260906123041 60 135 7.0 12.0 0.00 0.00 0.00 48 1004.4
20260906122539 60 141 10.0 12.0 0.00 0.00 0.00 50 1004.4
20260906122035 60 149 9.0 12.0 0.00 0.00 0.00 49 1004.4
20260906121541 62 153 7.0 13.0 0.00 0.00 0.00 46 1004.4
20260906121033 61 126 8.0 13.0 0.00 0.00 0.00 48 1004.3
20260906120533 62 174 7.0 15.0 0.00 0.00 0.00 46 1004.4
20260906120031 62 150 9.0 15.0 0.00 0.00 0.00 46 1004.4
20260906115531 62 132 11.0 15.0 0.00 0.00 0.00 46 1004.3
20260906115031 63 147 11.0 15.0 0.00 0.00 0.00 46 1004.3
20260906114538 63 143 11.0 17.0 0.00 0.00 0.00 45 1004.3
20260906114029 64 120 11.0 15.0 0.00 0.00 0.00 44 1004.3
20260906113529 64 136 11.0 18.0 0.00 0.00 0.00 44 1004.2
20260906113043 63 133 10.0 16.0 0.00 0.00 0.00 45 1004.3
20260906112529 63 116 10.0 16.0 0.00 0.00 0.00 45 1004.3
20260906112028 62 139 10.0 16.0 0.00 0.00 0.00 46 1004.3
20260906111528 62 159 8.0 14.0 0.00 0.00 0.00 45 1004.3
20260906111027 62 155 10.0 16.0 0.00 0.00 0.00 44 1004.4
20260906110527 62 143 12.0 17.0 0.00 0.00 0.00 44 1004.4
20260906110026 63 157 11.0 17.0 0.00 0.00 0.00 43 1004.3
20260906105526 63 151 12.0 17.0 0.00 0.00 0.00 43 1004.3
20260906105028 62 132 11.0 17.0 0.00 0.00 0.00 43 1004.3
20260906104529 62 171 12.0 16.0 0.00 0.00 0.00 44 1004.3
20260906104024 61 145 10.0 17.0 0.00 0.00 0.00 43 1004.3
20260906103524 63 169 9.0 17.0 0.00 0.00 0.00 41 1004.3
20260906103023 62 121 11.0 16.0 0.00 0.00 0.00 43 1004.2
20260906102523 63 147 11.0 18.0 0.00 0.00 0.00 42 1004.2
20260906102025 65 137 12.0 18.0 0.00 0.00 0.00 41 1004.1
20260906101522 65 143 11.0 19.0 0.00 0.00 0.00 40 1004.1
20260906101021 64 132 12.0 19.0 0.00 0.00 0.00 41 1004.0
20260906100521 64 132 13.0 19.0 0.00 0.00 0.00 40 1004.2
20260906100021 65 153 12.0 20.0 0.00 0.00 0.00 39 1004.1
20260906095520 65 126 14.0 20.0 0.00 0.00 0.00 39 1004.1
20260906095019 64 144 11.0 19.0 0.00 0.00 0.00 38 1004.2
20260906094519 64 135 10.0 17.0 0.00 0.00 0.00 39 1004.1
20260906094018 65 155 12.0 17.0 0.00 0.00 0.00 38 1004.0
20260906093521 65 138 14.0 19.0 0.00 0.00 0.00 37 1004.1
20260906093021 66 156 11.0 19.0 0.00 0.00 0.00 37 1004.0
20260906092518 66 122 12.0 20.0 0.00 0.00 0.00 37 1004.1
20260906092019 66 120 14.0 19.0 0.00 0.00 0.00 37 1004.0
20260906091529 66 119 12.0 19.0 0.00 0.00 0.00 37 1004.0
20260906091018 66 136 13.0 19.0 0.00 0.00 0.00 36 1004.0
20260906090516 67 126 14.0 21.0 0.00 0.00 0.00 36 1003.9
20260906090016 67 167 14.0 21.0 0.00 0.00 0.00 36 1003.9
20260906085519 67 147 16.0 21.0 0.00 0.00 0.00 36 1003.8
20260906085014 67 137 12.0 19.0 0.00 0.00 0.00 36 1003.8
20260906084514 66 147 13.0 19.0 0.00 0.00 0.00 36 1003.9
20260906084015 66 124 8.0 18.0 0.00 0.00 0.00 36 1003.8
20260906083516 66 135 10.0 17.0 0.00 0.00 0.00 36 1003.8
20260906083015 65 159 10.0 18.0 0.00 0.00 0.00 36 1003.9
20260906082513 67 173 12.0 18.0 0.00 0.00 0.00 34 1003.8
20260906082014 67 143 12.0 21.0 0.00 0.00 0.00 35 1004.0
20260906081515 66 118 14.0 20.0 0.00 0.00 0.00 36 1003.8
20260906081011 64 138 13.0 17.0 0.00 0.00 0.00 38 1003.9
20260906080530 63 130 10.0 15.0 0.00 0.00 0.00 39 1003.9
20260906080009 63 135 12.0 16.0 0.00 0.00 0.00 38 1004.0
20260906075510 63 130 11.0 18.0 0.00 0.00 0.00 37 1004.0
20260906075008 63 140 13.0 18.0 0.00 0.00 0.00 37 1004.1
20260906074517 63 143 12.0 17.0 0.00 0.00 0.00 38 1004.0
20260906074006 62 127 12.0 15.0 0.00 0.00 0.00 38 1004.0
20260906073505 63 144 10.0 17.0 0.00 0.00 0.00 37 1004.0
20260906073003 64 140 13.0 17.0 0.00 0.00 0.00 34 1004.0
20260906072503 65 143 12.0 17.0 0.00 0.00 0.00 34 1003.9
20260906072002 66 151 12.0 16.0 0.00 0.00 0.00 33 1004.0
20260906071604 66 145 12.0 16.0 0.00 0.00 0.00 33 1004.0
20260906071058 67 140 12.0 17.0 0.00 0.00 0.00 32 1004.0
20260906070557 69 119 12.0 19.0 0.00 0.00 0.00 31 1004.0
20260906070056 70 157 11.0 19.0 0.00 0.00 0.00 29 1004.1
20260906065557 69 148 12.0 15.0 0.00 0.00 0.00 29 1004.1
20260906065054 70 161 11.0 14.0 0.00 0.00 0.00 29 1004.2
20260906064552 70 174 10.0 14.0 0.00 0.00 0.00 28 1004.2
20260906064051 71 159 12.0 16.0 0.00 0.00 0.00 28 1004.1
20260906063550 71 161 11.0 17.0 0.00 0.00 0.00 27 1004.1
20260906063050 71 143 14.0 20.0 0.00 0.00 0.00 27 1004.1
20260906062548 71 155 14.0 22.0 0.00 0.00 0.00 28 1004.1
20260906062051 72 137 15.0 20.0 0.00 0.00 0.00 27 1004.1
20260906061555 72 153 14.0 21.0 0.00 0.00 0.00 27 1004.0
20260906061046 72 138 15.0 21.0 0.00 0.00 0.00 28 1004.0
20260906060545 71 166 14.0 22.0 0.00 0.00 0.00 28 1004.0
20260906060044 71 164 12.0 18.0 0.00 0.00 0.00 29 1003.9
20260906055543 71 158 14.0 19.0 0.00 0.00 0.00 28 1003.9
20260906055043 70 161 11.0 17.0 0.00 0.00 0.00 28 1003.8
20260906054542 71 152 12.0 17.0 0.00 0.00 0.00 28 1003.7
20260906054042 71 155 11.0 17.0 0.00 0.00 0.00 27 1003.7
20260906053543 72 155 13.0 19.0 0.00 0.00 0.00 27 1003.7
20260906053042 72 128 13.0 19.0 0.00 0.00 0.00 27 1003.6
20260906052542 72 163 13.0 20.0 0.00 0.00 0.00 27 1003.7
20260906052041 72 157 14.0 21.0 0.00 0.00 0.00 28 1003.7
20260906051549 71 154 13.0 19.0 0.00 0.00 0.00 28 1003.8
20260906051042 72 156 13.0 19.0 0.00 0.00 0.00 28 1003.7
20260906050546 72 136 13.0 18.0 0.00 0.00 0.00 27 1003.7
20260906050047 72 145 14.0 18.0 0.00 0.00 0.00 28 1003.6
20260906045545 72 168 11.0 16.0 0.00 0.00 0.00 27 1003.7
20260906045041 72 153 12.0 18.0 0.00 0.00 0.00 28 1003.7
20260906044542 71 160 12.0 18.0 0.00 0.00 0.00 28 1003.8
20260906044042 71 151 12.0 17.0 0.00 0.00 0.00 28 1003.8
20260906043540 71 144 11.0 16.0 0.00 0.00 0.00 28 1003.8
20260906043040 71 138 12.0 16.0 0.00 0.00 0.00 28 1003.7
20260906042542 71 141 11.0 15.0 0.00 0.00 0.00 29 1003.6
20260906042039 71 136 11.0 16.0 0.00 0.00 0.00 29 1003.6
20260906041639 70 142 11.0 16.0 0.00 0.00 0.00 29 1003.5
20260906041038 70 155 11.0 16.0 0.00 0.00 0.00 29 1003.6
20260906040539 68 140 12.0 16.0 0.00 0.00 0.00 30 1003.4
20260906040042 68 145 8.0 12.0 0.00 0.00 0.00 30 1003.5
20260906035539 69 167 9.0 15.0 0.00 0.00 0.00 28 1003.4
20260906035040 69 143 10.0 15.0 0.00 0.00 0.00 28 1003.3
20260906034538 70 143 9.0 15.0 0.00 0.00 0.00 28 1003.3
20260906034037 71 136 11.0 15.0 0.00 0.00 0.00 28 1003.2
20260906033537 71 159 10.0 16.0 0.00 0.00 0.00 26 1003.2
20260906033045 71 138 11.0 16.0 0.00 0.00 0.00 27 1003.0
20260906032537 71 145 10.0 13.0 0.00 0.00 0.00 27 1003.0
20260906032039 72 128 10.0 15.0 0.00 0.00 0.00 27 1002.9
20260906031636 72 147 10.0 16.0 0.00 0.00 0.00 27 1002.9
20260906031036 73 143 11.0 17.0 0.00 0.00 0.00 27 1002.8
20260906030536 73 145 10.0 18.0 0.00 0.00 0.00 26 1002.7
20260906030038 72 153 12.0 18.0 0.00 0.00 0.00 26 1002.6
20260906025535 73 131 10.0 15.0 0.00 0.00 0.00 27 1002.5
20260906025036 73 145 10.0 15.0 0.00 0.00 0.00 26 1002.5
20260906024537 73 143 9.0 14.0 0.00 0.00 0.00 26 1002.4
20260906024035 74 147 11.0 13.0 0.00 0.00 0.00 24 1002.3
20260906023536 74 157 11.0 15.0 0.00 0.00 0.00 24 1002.3
20260906023037 74 159 11.0 15.0 0.00 0.00 0.00 24 1002.2
20260906022535 73 152 11.0 16.0 0.00 0.00 0.00 25 1002.1
20260906022034 73 155 9.0 12.0 0.00 0.00 0.00 26 1002.0
20260906021533 74 148 9.0 14.0 0.00 0.00 0.00 26 1001.9
20260906021033 75 168 9.0 14.0 0.00 0.00 0.00 25 1001.9
20260906020534 75 153 10.0 14.0 0.00 0.00 0.00 26 1001.8
20260906020034 76 162 10.0 17.0 0.00 0.00 0.00 24 1001.9
20260906015533 77 162 10.0 18.0 0.00 0.00 0.00 23 1001.9
20260906015033 78 157 10.0 19.0 0.00 0.00 0.00 23 1001.9
20260906014535 79 158 13.0 23.0 0.00 0.00 0.00 22 1001.9
20260906014032 79 188 14.0 23.0 0.00 0.00 0.00 21 1001.9
20260906013532 79 169 14.0 21.0 0.00 0.00 0.00 21 1001.8
20260906013033 80 165 15.0 23.0 0.00 0.00 0.00 21 1002.0
20260906012535 80 173 14.0 23.0 0.00 0.00 0.00 22 1002.0
20260906012031 81 165 13.0 20.0 0.00 0.00 0.00 22 1002.0
20260906011536 81 161 13.0 20.0 0.00 0.00 0.00 22 1002.0
20260906011031 82 134 16.0 24.0 0.00 0.00 0.00 21 1001.9
20260906010530 82 183 16.0 24.0 0.00 0.00 0.00 21 1002.0
20260906010032 82 176 15.0 26.0 0.00 0.00 0.00 21 1001.9
20260906005529 82 172 16.0 26.0 0.00 0.00 0.00 21 1001.9
20260906005029 83 193 17.0 23.0 0.00 0.00 0.00 21 1001.9
20260906004529 83 169 16.0 25.0 0.00 0.00 0.00 21 1001.9
20260906004028 83 169 16.0 25.0 0.00 0.00 0.00 21 1001.9
20260906003528 84 176 14.0 23.0 0.00 0.00 0.00 21 1001.9
20260906003028 84 157 14.0 23.0 0.00 0.00 0.00 22 1001.9
20260906002529 84 153 13.0 32.0 0.00 0.00 0.00 22 1001.9
20260906002026 83 129 20.0 32.0 0.00 0.00 0.00 22 1001.9
20260906001526 83 140 11.0 23.0 0.00 0.00 0.00 24 1001.9
20260906001025 84 151 16.0 24.0 0.00 0.00 0.00 23 1002.0
20260906000525 84 146 14.0 21.0 0.00 0.00 0.00 22 1001.9
20260906000025 84 180 12.0 24.0 0.00 0.00 0.00 22 1002.0
20260905235524 84 172 18.0 28.0 0.00 0.00 0.00 21 1002.2
20260905235025 84 135 20.0 29.0 0.00 0.00 0.00 22 1002.1
20260905234523 84 165 18.0 29.0 0.00 0.00 0.00 21 1002.0
20260905234024 85 179 18.0 28.0 0.00 0.00 0.00 21 1002.1
20260905233524 85 138 16.0 23.0 0.00 0.00 0.00 21 1002.2
20260905233021 85 190 12.0 25.0 0.00 0.00 0.00 21 1002.1
20260905232522 85 161 16.0 30.0 0.00 0.00 0.00 21 1002.2
20260905232021 85 170 19.0 30.0 0.00 0.00 0.00 21 1002.2
20260905231520 85 222 19.0 29.0 0.00 0.00 0.00 21 1002.1
20260905231021 85 164 15.0 27.0 0.00 0.00 0.00 21 1002.3
20260905230519 85 180 18.0 29.0 0.00 0.00 0.00 22 1002.4
20260905230019 85 172 16.0 29.0 0.00 0.00 0.00 22 1002.4
20260905225519 85 196 19.0 29.0 0.00 0.00 0.00 22 1002.4
20260905225021 85 185 20.0 26.0 0.00 0.00 0.00 21 1002.5
20260905224530 85 192 14.0 26.0 0.00 0.00 0.00 22 1002.5
20260905224021 85 152 15.0 30.0 0.00 0.00 0.00 21 1002.5
20260905223518 85 182 21.0 30.0 0.00 0.00 0.00 21 1002.7
20260905223017 85 153 13.0 26.0 0.00 0.00 0.00 21 1002.6
20260905222516 85 179 17.0 29.0 0.00 0.00 0.00 21 1002.6
20260905222015 85 212 22.0 29.0 0.00 0.00 0.00 20 1002.7
20260905221517 85 158 14.0 27.0 0.00 0.00 0.00 21 1002.8
20260905221019 85 174 19.0 27.0 0.00 0.00 0.00 20 1002.8
20260905220514 84 181 20.0 27.0 0.00 0.00 0.00 20 1002.9
20260905220014 84 171 17.0 29.0 0.00 0.00 0.00 22 1002.8
20260905215514 85 166 18.0 29.0 0.00 0.00 0.00 21 1002.8
20260905215013 84 198 14.0 28.0 0.00 0.00 0.00 21 1003.0
20260905214513 84 199 17.0 28.0 0.00 0.00 0.00 20 1003.0
20260905214013 84 188 18.0 24.0 0.00 0.00 0.00 20 1003.2
20260905213512 83 145 19.0 29.0 0.00 0.00 0.00 22 1003.1
20260905213012 83 160 20.0 27.0 0.00 0.00 0.00 21 1003.0
20260905212513 83 149 20.0 27.0 0.00 0.00 0.00 22 1003.2
20260905212015 82 167 23.0 29.0 0.00 0.00 0.00 22 1003.3
20260905211511 83 122 19.0 28.0 0.00 0.00 0.00 22 1003.2
20260905211011 83 184 18.0 28.0 0.00 0.00 0.00 22 1003.4
20260905210514 84 151 17.0 28.0 0.00 0.00 0.00 21 1003.4
20260905210010 84 175 18.0 27.0 0.00 0.00 0.00 21 1003.3
20260905205509 83 167 18.0 27.0 0.00 0.00 0.00 21 1003.5
20260905205009 83 145 21.0 31.0 0.00 0.00 0.00 21 1003.6
20260905204509 83 163 15.0 28.0 0.00 0.00 0.00 23 1003.5
20260905204008 83 158 18.0 28.0 0.00 0.00 0.00 21 1003.7
20260905203507 82 135 19.0 28.0 0.00 0.00 0.00 22 1003.6
20260905203008 82 185 14.0 26.0 0.00 0.00 0.00 22 1003.7
20260905202507 82 161 21.0 29.0 0.00 0.00 0.00 22 1003.8
20260905202006 81 147 15.0 31.0 0.00 0.00 0.00 23 1003.8
20260905201507 82 149 21.0 33.0 0.00 0.00 0.00 22 1003.8
20260905201010 81 155 25.0 33.0 0.00 0.00 0.00 23 1003.9
20260905200506 83 142 20.0 30.0 0.00 0.00 0.00 22 1003.8
20260905200004 83 173 19.0 30.0 0.00 0.00 0.00 23 1003.8
20260905195505 82 188 21.0 29.0 0.00 0.00 0.00 23 1003.8
20260905195007 81 155 20.0 34.0 0.00 0.00 0.00 24 1003.8
20260905194504 82 134 20.0 29.0 0.00 0.00 0.00 23 1003.9
20260905194103 82 177 19.0 25.0 0.00 0.00 0.00 22 1004.1
20260905193502 82 127 19.0 24.0 0.00 0.00 0.00 23 1004.1